• In Czech Republic
  • List of Countries
  • For 7 days
  • Water Temperature
  • Satellite Maps
  • Weather Map
  • Weather Widgets
  • user-avatar
    Login

    Hourly Weather Vanadzor

    Today, 25 February, Sunday

    Time Temperature Precipitation Wind Pressure Humidity
    00:00 -1°C° 0 mm 1 mps 628 mmHg 71%
    01:00 -1°C° 0 mm 1 mps 628 mmHg 70%
    02:00 -1°C° 0 mm 1 mps 628 mmHg 70%
    03:00 -2°C° 0 mm 1 mps 628 mmHg 72%
    04:00 -2°C° 0 mm 1 mps 628 mmHg 71%
    05:00 -2°C° 0 mm 1 mps 628 mmHg 71%
    06:00 -2°C° 0 mm 1 mps 628 mmHg 71%
    07:00 -1°C° 0 mm 1 mps 628 mmHg 71%
    08:00 -2°C° 0 mm 2 mps 628 mmHg 70%
    09:00 +1°C° 0 mm 2 mps 628 mmHg 70%
    10:00 +2°C° 0 mm 2 mps 628 mmHg 68%
    11:00 +3°C° 0 mm 2 mps 628 mmHg 66%
    12:00 +3°C° 0 mm 3 mps 628 mmHg 65%
    13:00 +3°C° 0 mm 3 mps 628 mmHg 64%
    14:00 +4°C° 0 mm 3 mps 627 mmHg 64%
    15:00 +4°C° 0 mm 3 mps 627 mmHg 62%
    16:00 +4°C° 0 mm 2 mps 627 mmHg 65%
    17:00 +2°C° 0 mm 2 mps 627 mmHg 68%
    18:00 +1°C° 0 mm 2 mps 627 mmHg 71%
    19:00 +1°C° 0 mm 2 mps 627 mmHg 72%
    20:00 -1°C° 0 mm 2 mps 627 mmHg 72%
    21:00 -1°C° 0 mm 2 mps 627 mmHg 73%
    22:00 -1°C° 0.1 mm 2 mps 627 mmHg 73%
    23:00 -1°C° 0.1 mm 2 mps 627 mmHg 74%

    Tomorrow, 26 February, Monday

    Time Temperature Precipitation Wind Pressure Humidity
    00:00 -1°C° 0.1 mm 2 mps 627 mmHg 74%
    01:00 -1°C° 0.2 mm 2 mps 627 mmHg 76%
    02:00 -1°C° 0.2 mm 2 mps 627 mmHg 77%
    03:00 -1°C° 0.2 mm 2 mps 627 mmHg 79%
    04:00 -1°C° 0.2 mm 2 mps 627 mmHg 80%
    05:00 -1°C° 0.2 mm 2 mps 627 mmHg 80%
    06:00 -1°C° 0.2 mm 2 mps 627 mmHg 81%
    07:00 -1°C° 0.4 mm 2 mps 627 mmHg 82%
    08:00 +1°C° 0.4 mm 1 mps 628 mmHg 83%
    09:00 +2°C° 0.4 mm 1 mps 628 mmHg 83%
    10:00 +3°C° 0.2 mm 1 mps 629 mmHg 79%
    11:00 +3°C° 0.2 mm 2 mps 629 mmHg 76%
    12:00 +4°C° 0.2 mm 2 mps 629 mmHg 72%
    13:00 +4°C° 0.1 mm 2 mps 629 mmHg 71%
    14:00 +5°C° 0.1 mm 1 mps 628 mmHg 69%
    15:00 +5°C° 0.1 mm 1 mps 628 mmHg 68%
    16:00 +4°C° 0 mm 1 mps 628 mmHg 70%
    17:00 +3°C° 0 mm 1 mps 628 mmHg 72%
    18:00 +2°C° 0 mm 1 mps 628 mmHg 75%
    19:00 +2°C° 0 mm 1 mps 628 mmHg 75%
    20:00 +1°C° 0 mm 1 mps 628 mmHg 76%
    21:00 +1°C° 0 mm 1 mps 628 mmHg 76%
    22:00 0°C° 0 mm 1 mps 629 mmHg 76%
    23:00 0°C° 0 mm 1 mps 629 mmHg 75%

    Day after tomorrow, 27 February, Tuesday

    Time Temperature Precipitation Wind Pressure Humidity
    00:00 0°C° 0 mm 1 mps 629 mmHg 75%
    01:00 0°C° 0.1 mm 1 mps 629 mmHg 76%
    02:00 0°C° 0.1 mm 1 mps 629 mmHg 77%
    03:00 0°C° 0.1 mm 1 mps 629 mmHg 79%
    04:00 0°C° 0.2 mm 1 mps 629 mmHg 80%
    05:00 0°C° 0.2 mm 1 mps 630 mmHg 82%
    06:00 0°C° 0.2 mm 1 mps 630 mmHg 84%
    07:00 +1°C° 0.1 mm 1 mps 630 mmHg 84%
    08:00 +1°C° 0.1 mm 1 mps 630 mmHg 83%
    09:00 +1°C° 0.1 mm 2 mps 630 mmHg 83%
    10:00 +2°C° 0.1 mm 2 mps 630 mmHg 82%
    11:00 +2°C° 0.1 mm 2 mps 630 mmHg 81%
    12:00 +3°C° 0.1 mm 2 mps 630 mmHg 80%
    13:00 +4°C° 0 mm 2 mps 630 mmHg 78%
    14:00 +4°C° 0 mm 2 mps 630 mmHg 77%
    15:00 +4°C° 0 mm 2 mps 630 mmHg 75%
    16:00 +3°C° 0.1 mm 2 mps 630 mmHg 78%
    17:00 +2°C° 0.1 mm 2 mps 630 mmHg 80%
    18:00 +3°C° 0.1 mm 1 mps 630 mmHg 83%
    19:00 +1°C° 0.1 mm 2 mps 630 mmHg 83%
    20:00 +1°C° 0.1 mm 2 mps 630 mmHg 82%
    21:00 +1°C° 0.1 mm 2 mps 630 mmHg 82%
    22:00 +1°C° 0.1 mm 2 mps 631 mmHg 83%
    23:00 +1°C° 0.1 mm 2 mps 631 mmHg 83%

    28 February, Wednesday

    Time Temperature Precipitation Wind Pressure Humidity
    00:00 +1°C° 0.1 mm 2 mps 631 mmHg 83%
    01:00 +1°C° 0.1 mm 2 mps 631 mmHg 84%
    02:00 -1°C° 0.1 mm 2 mps 631 mmHg 84%
    03:00 +1°C° 0.1 mm 1 mps 631 mmHg 84%
    04:00 +1°C° 0.1 mm 1 mps 631 mmHg 84%
    05:00 -1°C° 0.1 mm 2 mps 632 mmHg 83%
    06:00 -1°C° 0.1 mm 2 mps 632 mmHg 82%
    07:00 +1°C° 0 mm 2 mps 632 mmHg 79%
    08:00 +2°C° 0 mm 2 mps 633 mmHg 76%
    09:00 +3°C° 0 mm 2 mps 633 mmHg 73%
    10:00 +4°C° 0 mm 2 mps 633 mmHg 70%
    11:00 +5°C° 0 mm 2 mps 633 mmHg 67%
    12:00 +6°C° 0 mm 2 mps 633 mmHg 64%
    13:00 +6°C° 0 mm 2 mps 633 mmHg 63%
    14:00 +6°C° 0 mm 2 mps 633 mmHg 62%
    15:00 +7°C° 0 mm 1 mps 633 mmHg 61%
    16:00 +6°C° 0 mm 1 mps 632 mmHg 63%
    17:00 +5°C° 0 mm 1 mps 632 mmHg 66%
    18:00 +3°C° 0 mm 1 mps 631 mmHg 69%
    19:00 +3°C° 0 mm 1 mps 632 mmHg 70%
    20:00 +2°C° 0 mm 1 mps 632 mmHg 71%
    21:00 +2°C° 0 mm 1 mps 632 mmHg 72%
    22:00 +2°C° 0 mm 1 mps 632 mmHg 72%
    23:00 +1°C° 0 mm 1 mps 632 mmHg 72%

    1 March, Thursday

    Time Temperature Precipitation Wind Pressure Humidity
    00:00 +1°C° 0 mm 1 mps 632 mmHg 72%
    01:00 +1°C° 0 mm 1 mps 631 mmHg 72%
    02:00 +1°C° 0 mm 1 mps 631 mmHg 73%
    03:00 0°C° 0 mm 1 mps 631 mmHg 73%
    04:00 0°C° 0 mm 1 mps 631 mmHg 74%
    05:00 0°C° 0 mm 1 mps 631 mmHg 74%
    06:00 0°C° 0 mm 1 mps 630 mmHg 75%
    07:00 +1°C° 0 mm 1 mps 631 mmHg 74%
    08:00 +2°C° 0 mm 1 mps 631 mmHg 73%
    09:00 +2°C° 0 mm 2 mps 631 mmHg 72%
    10:00 +3°C° 0 mm 2 mps 631 mmHg 70%
    11:00 +3°C° 0 mm 2 mps 630 mmHg 68%
    12:00 +3°C° 0 mm 3 mps 630 mmHg 65%
    13:00 +4°C° 0 mm 3 mps 630 mmHg 65%
    14:00 +5°C° 0 mm 2 mps 630 mmHg 64%
    15:00 +5°C° 0 mm 2 mps 629 mmHg 64%
    16:00 +4°C° 0.1 mm 2 mps 629 mmHg 68%
    17:00 +3°C° 0.1 mm 2 mps 629 mmHg 71%
    18:00 +3°C° 0.1 mm 1 mps 629 mmHg 75%
    19:00 +3°C° 0.1 mm 1 mps 629 mmHg 76%
    20:00 +3°C° 0.1 mm 1 mps 629 mmHg 78%
    21:00 +2°C° 0.1 mm 1 mps 629 mmHg 80%
    22:00 +2°C° 0.2 mm 1 mps 629 mmHg 82%
    23:00 +2°C° 0.2 mm 1 mps 629 mmHg 83%

    2 March, Friday

    Time Temperature Precipitation Wind Pressure Humidity
    00:00 +2°C° 0.2 mm 1 mps 629 mmHg 85%
    01:00 +2°C° 0.8 mm 1 mps 629 mmHg 88%
    02:00 +2°C° 0.8 mm 1 mps 629 mmHg 90%
    03:00 +1°C° 0.8 mm 1 mps 629 mmHg 93%
    04:00 +1°C° 0.6 mm 1 mps 629 mmHg 93%
    05:00 +1°C° 0.6 mm 1 mps 629 mmHg 92%
    06:00 +1°C° 0.6 mm 1 mps 630 mmHg 92%
    07:00 -1°C° 0.4 mm 2 mps 630 mmHg 90%
    08:00 -1°C° 0.4 mm 2 mps 630 mmHg 88%
    09:00 -1°C° 0.4 mm 3 mps 631 mmHg 86%
    10:00 -1°C° 0.3 mm 3 mps 631 mmHg 81%
    11:00 0°C° 0.3 mm 3 mps 631 mmHg 76%
    12:00 0°C° 0.3 mm 3 mps 631 mmHg 71%
    13:00 0°C° 0 mm 3 mps 631 mmHg 67%
    14:00 +1°C° 0 mm 3 mps 631 mmHg 63%
    15:00 +1°C° 0 mm 3 mps 631 mmHg 59%
    16:00 0°C° 0 mm 3 mps 631 mmHg 61%
    17:00 -2°C° 0 mm 2 mps 631 mmHg 63%
    18:00 -1°C° 0 mm 1 mps 631 mmHg 65%
    19:00 -2°C° 0 mm 1 mps 631 mmHg 66%
    20:00 -2°C° 0 mm 1 mps 631 mmHg 66%
    21:00 -3°C° 0 mm 1 mps 631 mmHg 66%
    22:00 -3°C° 0 mm 1 mps 631 mmHg 66%
    23:00 -3°C° 0 mm 1 mps 631 mmHg 65%
    Show more